[[{"header":{"parameterUnit":"m.s-1","parameterCategory":1,"la1":30.2992,"la2":30.254,"lo1":-89.0895,"lo2":-89.0443,"dy":0.0025,"dx":0.0025,"nx":19,"ny":19,"refTime":"2026-03-16T09:00:00:Z","depth":0,"parameterNumber":2,"parameterNumberName":"U-component_of_WINDS"},"data":[0,0,0,4.2229,4.223,4.231,4.231,4.2425,4.2426,0,0,0,0,0,0,0,0,0,0,0,4.2214,4.2215,4.2228,4.2231,4.231,4.231,4.2425,4.2426,0,0,0,0,0,0,0,0,0,0,0,4.2213,4.2214,4.2216,4.2231,4.231,4.2311,4.2424,4.236,0,0,0,0,0,0,0,0,0,0,4.228,4.2275,4.2214,4.2216,4.2232,4.231,4.2311,4.2356,4.2364,4.2395,0,4.2425,0,4.2428,4.2435,4.2435,0,0,0,4.2224,4.2269,4.2283,4.2216,4.2232,4.231,4.2272,4.236,4.2369,4.2405,4.2427,4.2431,4.243,4.2436,4.2436,4.2642,4.2643,0,0,4.2219,4.2232,4.2277,4.2289,4.2278,4.227,4.2275,4.2365,4.239,4.2427,4.2433,4.2432,4.2436,4.2437,4.2641,4.2642,0,0,0,4.2211,4.2229,4.2241,4.2284,4.2298,4.2272,4.2278,4.2386,4.2388,4.2434,4.2433,4.2437,4.2439,4.2639,4.2641,4.2718,0,0,0,4.2208,4.2225,4.2239,4.2248,4.2296,4.2343,4.2297,4.2382,4.2392,4.2433,4.2437,4.244,4.2638,4.264,4.2713,4.2751,0,0,0,4.2205,4.2224,4.2239,4.2248,4.2283,4.2341,4.2349,4.2384,4.2392,4.2435,4.244,4.2637,4.264,4.2708,4.2744,4.281,0,0,0,4.2205,4.2304,4.224,4.2351,4.2283,4.2389,4.2348,4.2426,4.2473,4.2438,4.2638,4.2641,4.2707,4.2739,4.2805,4.2867,4.2895,0,0,4.2337,4.2321,4.2385,4.233,4.2451,4.2375,4.2507,4.2537,4.2528,4.2604,4.2609,4.2714,4.2743,4.2809,4.3045,4.3067,0,0,0,4.2431,4.2477,4.2506,4.2552,4.2579,4.2605,4.2613,4.2624,4.2689,4.2571,4.2756,4.2773,4.2811,4.284,4.2858,4.289,4.2655,4.2655,4.2655,4.2634,4.262,4.2726,4.2722,4.2767,4.2777,4.2812,4.2828,4.2799,4.2843,4.2865,4.3011,4.3045,4.3059,4.3092,4.2898,4.2898,4.2898,4.2898,4.2826,4.2889,4.2851,4.2939,4.2924,4.2998,4.3011,4.2989,4.3054,4.2992,4.3025,4.2958,4.3084,4.3112,4.2904,4.2903,4.2902,4.2902,4.2901,4.2957,4.2985,4.2999,4.3066,4.3119,4.3111,4.3177,4.316,4.3145,4.3177,4.3199,4.3198,4.3194,4.3189,4.319,4.319,4.3191,4.3191,4.3191,4.3087,4.3101,4.3159,4.3198,4.3226,4.3262,4.3274,4.3301,4.3326,4.3309,4.3309,4.3276,4.3099,4.3055,4.3199,4.3198,4.3197,4.3196,4.3195,4.3286,4.3239,4.3329,4.3358,4.3403,4.3457,4.3436,4.3493,4.3513,4.3546,4.3507,4.338,4.3361,4.3346,4.3309,4.351,4.351,4.351,4.351,4.3396,4.3386,4.3475,4.3523,4.3567,4.3558,4.3661,4.3672,4.3675,4.3687,4.3656,4.3606,4.3591,4.3581,4.3561,4.3526,4.3778,4.3778,4.3778,4.3517,4.3511,4.3601,4.3606,4.3641,4.3671,4.3767,4.3822,4.3816,4.3789,4.3695,4.3684,4.3603,4.3578,4.3547,4.3516,4.3452,0,0]},{"header":{"parameterUnit":"m.s-1","parameterCategory":1,"la1":30.2992,"la2":30.254,"lo1":-89.0895,"lo2":-89.0443,"dy":0.0025,"dx":0.0025,"nx":19,"ny":19,"refTime":"2026-03-16T09:00:00:Z","depth":0,"parameterNumber":3,"parameterNumberName":"V-component_of_WINDS"},"data":[0,0,0,-7.7289,-7.7295,-7.7564,-7.7565,-7.7913,-7.7917,0,0,0,0,0,0,0,0,0,0,0,-7.7215,-7.7218,-7.7289,-7.7296,-7.7564,-7.7565,-7.7913,-7.7917,0,0,0,0,0,0,0,0,0,0,0,-7.7214,-7.7217,-7.722,-7.7297,-7.7563,-7.7565,-7.7912,-7.7707,0,0,0,0,0,0,0,0,0,0,-7.7446,-7.7383,-7.7216,-7.722,-7.7298,-7.7563,-7.7565,-7.7697,-7.772,-7.7795,0,-7.7864,0,-7.7896,-7.794,-7.7942,0,0,0,-7.7291,-7.7364,-7.7432,-7.7221,-7.7301,-7.7563,-7.7442,-7.771,-7.7736,-7.7825,-7.7869,-7.7882,-7.7902,-7.7943,-7.7945,-7.8395,-7.8398,0,0,-7.7277,-7.7266,-7.7414,-7.7448,-7.741,-7.7433,-7.745,-7.7725,-7.7772,-7.7871,-7.789,-7.7908,-7.7945,-7.7948,-7.8393,-7.8396,0,0,0,-7.7237,-7.7256,-7.7316,-7.7434,-7.7482,-7.7441,-7.746,-7.776,-7.7781,-7.7894,-7.7912,-7.7947,-7.7952,-7.8391,-7.8394,-7.8499,0,0,0,-7.7228,-7.7233,-7.731,-7.7306,-7.7478,-7.7625,-7.7489,-7.7762,-7.7793,-7.791,-7.7947,-7.7955,-7.8388,-7.8393,-7.8491,-7.855,0,0,0,-7.7196,-7.7229,-7.727,-7.7305,-7.742,-7.7621,-7.7657,-7.7769,-7.7805,-7.7942,-7.7956,-7.8387,-7.8392,-7.8483,-7.8538,-7.8666,0,0,0,-7.7158,-7.7358,-7.7271,-7.7501,-7.7418,-7.7684,-7.7656,-7.7854,-7.7984,-7.7949,-7.8389,-7.8394,-7.8481,-7.853,-7.8658,-7.8772,-7.8818,0,0,-7.7404,-7.7387,-7.7523,-7.7453,-7.7732,-7.7644,-7.7938,-7.8067,-7.8088,-7.8291,-7.8302,-7.8493,-7.8537,-7.8664,-7.9083,-7.912,0,0,0,-7.7597,-7.7695,-7.7771,-7.7896,-7.8,-7.8094,-7.8179,-7.8227,-7.84,-7.8191,-7.8575,-7.8601,-7.8676,-7.8731,-7.8762,-7.8827,-7.8419,-7.8418,-7.8418,-7.793,-7.7949,-7.8175,-7.8227,-7.8348,-7.8434,-7.8533,-7.8612,-7.8594,-7.8685,-7.8745,-7.8997,-7.9061,-7.9085,-7.9152,-7.8807,-7.8807,-7.8807,-7.8808,-7.8292,-7.8433,-7.8406,-7.8617,-7.8635,-7.8811,-7.8902,-7.8883,-7.9049,-7.8953,-7.902,-7.8913,-7.9125,-7.9184,-7.8816,-7.8814,-7.8813,-7.8813,-7.8812,-7.8511,-7.8582,-7.8638,-7.8821,-7.8959,-7.9003,-7.9164,-7.9175,-7.9185,-7.9252,-7.9316,-7.9315,-7.9314,-7.9282,-7.9283,-7.9284,-7.9284,-7.9285,-7.9286,-7.8717,-7.8777,-7.8912,-7.904,-7.9122,-7.923,-7.9319,-7.9399,-7.949,-7.9485,-7.9486,-7.9459,-7.9142,-7.9062,-7.9299,-7.9297,-7.9295,-7.9294,-7.9293,-7.9077,-7.8998,-7.9207,-7.9289,-7.944,-7.9576,-7.9588,-7.975,-7.9818,-7.9897,-7.9856,-7.962,-7.9603,-7.9578,-7.9512,-7.9851,-7.9851,-7.9852,-7.9852,-7.9262,-7.9255,-7.9472,-7.9602,-7.9731,-7.9762,-7.9997,-8.0068,-8.0128,-8.0171,-8.0123,-8.0037,-8.0011,-8.0009,-7.9975,-7.9913,-8.0347,-8.0348,-8.0348,-7.9485,-7.9491,-7.9689,-7.9749,-7.9868,-7.9969,-8.019,-8.034,-8.0391,-8.0368,-8.0205,-8.0184,-8.0044,-7.9998,-7.997,-7.9917,-7.9804,0,0]}]]